Notices

What's New in latest Release from April 7th, 2021:

- Updated Glossary, including Speed of Maximum Gust, and Total Hourly Precipitation

- Updated national and regional climate services offices contacts and prices information

- Addition of station inventory lists for 1981-2010, 1971-2000, and 1961-1990 Normals.

If you haven't already, please take our survey and provide feedback about our website: https://eccc.sondage-survey.ca/f/LanguageSelection.aspx?s=442ca660-fcf1-47c0-95a9-59707d6fd709

Hourly Data Report for August 01, 2015

IQALUIT CLIMATE
NUNAVUT

63°44'50.000" N
68°32'40.000" W
33.50 m
2402592
71321
XFB

Download Data

Hourly Data (August 2015)
Hourly Data Report for August 1, 2015
TIME
LST
Temp Definition
°C
Dew Point Definition
°C
Rel Hum Definition
%
Precip. Amount Definition
mm

Wind Dir Definition
10's deg

Wind Spd Definition
km/h
Visibility Definition
km
Stn Press Definition
kPa
Hmdx Definition


Wind Chill Definition


Weather Definition


00:00 3.8 3.5 98 0.2 14 21   100.32     LegendNANA
01:00 3.6 3.4 98 0.0 14 15   100.32     LegendNANA
02:00 3.5 3.1 97 0.0 15 8   100.28     LegendNANA
03:00 3.8 3.3 96 0.0 17 11   100.26     LegendNANA
04:00 3.6 3.3 98 0.0 16 18   100.25     LegendNANA
05:00 3.5 3.1 97 0.0 14 10   100.28     LegendNANA
06:00 3.7 3.3 97 0.0 15 7   100.30     LegendNANA
07:00 5.0 4.1 94 0.0 14 19   100.34     LegendNANA
08:00 4.8 3.6 92 0.0 14 18   100.32     LegendNANA
09:00 4.9 3.3 89 0.0 14 18   100.32     LegendNANA
10:00 5.3 4.0 91 0.0 14 12   100.30     LegendNANA
11:00 5.0 3.9 92 0.0 14 8   100.27     LegendNANA
12:00 5.2 4.4 94 0.0 13 7   100.28     LegendNANA
13:00 5.5 4.7 95 0.0 14 10   100.30     LegendNANA
14:00 5.7 5.1 96 0.3 15 4   100.31     LegendNANA
15:00 5.5 4.8 95 0.2 15 8   100.32     LegendNANA
16:00 4.8 4.4 97 0.5 16 9   100.36     LegendNANA
17:00 4.4 3.9 97 1.0 16 9   100.39     LegendNANA
18:00 4.6 4.1 97 0.3 16 13   100.45     LegendNANA
19:00 4.5 4.0 97 0.2 14 18   100.49     LegendNANA
20:00 4.5 4.1 97 0.0 14 23   100.54     LegendNANA
21:00 3.8 3.5 98 0.0 14 19   100.62     LegendNANA
22:00 4.0 3.4 96 0.0 13 14   100.64     LegendNANA
23:00 3.4 2.9 97 0.0 15 10   100.66     LegendNANA

Notes on Data Quality.

Legend

  • E = Estimated
  • M = Missing
  • NA = Not Available*
  • [empty] = Indicates an unobserved value
Date modified: